Location: ??
(35.5090°N, 139.6783°E)
Time: 03:03:08
(UTC+00:00)

Cosmos 1802 Rocket - Pass Details

Date: 08 November 2025
Orbit: 953 x 1011 km, 82.9° (Epoch: 09 December)

Event Time Altitude Azimuth Distance (km) Brightness Sun altitude
Rises 08:04:18 0° 177° (S) 3,702 7.2 -5.5°
Reaches altitude 10° 08:06:49 10° 175° (S) 2,763 6.5 -6.0°
Maximum altitude 08:13:07 69° 93° (E) 1,075 4.1 -7.2°
Drops below altitude 10° 08:19:30 10° 12° (NNE) 2,796 6.1 -8.5°
Sets 08:22:04 0° 10° (N) 3,750 6.8 -9.0°
